Powrót do katalogu

STARLINK-30257

AktywnyŁącznośćVLEO
NORAD 57526·PAYLOAD·🇺🇸 United States

Wystrzelony Aug 8, 2023 z Vandenberg Space Force Base

Loading…

Następne Przeloty (najbliższe 24 godziny)

TLE

ŚwieżeSource: CelesTrak SupGP

Epoka: Sep 15, 2026, 03:03 UTC

1 57526C 23115F   26258.12756944  .00017142  00000+0  62086-3 0  2585
2 57526  43.0014  11.8694 0001506 263.2548  47.7133 15.27570134    11

Śledź STARLINK-30257 w czasie rzeczywistym z AllMySat

Download on the App Store